Location: Namasale
(1.5000°N, 32.6167°E)
Time: 18:47:50
(UTC+00:00)

Vanguard 1 Rocket - Pass Details

Date: 28 April 2021
Orbit: 652 x 4224 km, 34.3° (Epoch: 09 May)

Event Time Altitude Azimuth Distance (km) Brightness Sun altitude
Rises 22:46:36 0° 226° (SW) 6,433 - -68.3°
Reaches altitude 10° 22:53:21 10° 207° (SSW) 6,093 - -67.1°
Maximum altitude 23:05:40 18° 170° (S) 6,318 - -64.8°
Exits shadow 23:10:08 17° 158° (SSE) 6,589 11.6 -63.9°
Drops below altitude 10° 23:20:33 10° 134° (SE) 7,426 12.0 -61.9°
Sets 23:30:35 0° 117° (ESE) 8,362 12.5 -59.8°
